This is the latest recevied weather packets stored in our database for station/object NW6UP. If no packets are shown the sender has not sent any weather packets the latest 10 day(s).
| Time | Temp. | Humidity | Pressure | Rain* | Wind** | Luminosity | Snow |
|---|---|---|---|---|---|---|---|
| 1777534763 | 11.67° C | 85% | 0 hPa | 0 mm | - | - | - |
| 1777533562 | 11.67° C | 84% | 0 hPa | 0 mm | - | - | - |
| 1777532364 | 12.22° C | 82% | 1016.5 hPa | 0 mm | - | - | - |
| 1777531162 | 12.78° C | 81% | 0 hPa | 0 mm | - | - | - |
| 1777529962 | 12.78° C | 81% | 0 hPa | 0 mm | - | - | - |
| 1777527563 | 13.33° C | 78% | 0 hPa | 0 mm | - | - | - |
| 1777526364 | 13.89° C | 77% | 0 hPa | 0 mm | - | - | - |
| 1777525162 | 13.89° C | 76% | 0 hPa | 0 mm | - | - | - |
| 1777523962 | 14.44° C | 73% | 1016 hPa | 0 mm | - | - | - |
| 1777522762 | 15° C | 70% | 0 hPa | 0 mm | - | - | - |
| 1777521562 | 15° C | 71% | 0 hPa | 0 mm | - | - | - |
| 1777520362 | 15.56° C | 70% | 1015.4 hPa | 0 mm | - | - | - |
| 1777519162 | 16.11° C | 69% | 0 hPa | 0 mm | - | - | - |
| 1777517962 | 16.67° C | 67% | 0 hPa | 0 mm | - | - | - |
| 1777516763 | 17.22° C | 66% | 0 hPa | 0 mm | - | - | - |
| 1777515562 | 17.78° C | 65% | 0 hPa | 0 mm | - | - | - |
| 1777514362 | 18.33° C | 64% | 0 hPa | 0 mm | - | - | - |
| 1777513163 | 18.89° C | 62% | 0 hPa | 0 mm | - | - | - |
| 1777511962 | 19.44° C | 60% | 0 hPa | 0 mm | - | - | - |
| 1777508363 | 21.67° C | 55% | 1014.8 hPa | 0 mm | - | - | - |
| 1777507163 | 22.78° C | 54% | 0 hPa | 0 mm | - | - | - |
| 1777505962 | 22.78° C | 52% | 1015 hPa | 0 mm | - | - | - |
| 1777504762 | 23.33° C | 51% | 1015.3 hPa | 0 mm | - | - | - |
| 1777503562 | 23.89° C | 51% | 1015.4 hPa | 0 mm | - | - | - |
| 1777499962 | 25° C | 44% | 1015.7 hPa | 0 mm | - | - | - |
* Rain latest hour (hover to see other rain measurements)
** Current wind speed in m/s (hover to see current wind gust speed)